N1371D KBOS-KACK

Flight info

Callsign N1371D
Flight time 0h 57m
Altitude VFR/035
Route
Aircraft C172/L-VGD/C

Departure

Time 2026-05-05 22:51
Airport Boston Logan International Airport (KBOS)

Arrival

Time 2026-05-05 23:48
Airport Nantucket Memorial Airport (KACK)
Time Latitude Longitude Altitude Speed Heading
2026-05-05 22:27 42.37481 -71.02184 20 ft 0 kts 312°
2026-05-05 22:42 42.37501 -71.02208 20 ft 9 kts 342°
2026-05-05 22:43 42.37534 -71.02193 20 ft 0 kts 81°
2026-05-05 22:43 42.37522 -71.02128 20 ft 12 kts 126°
2026-05-05 22:43 42.37472 -71.02053 20 ft 9 kts 133°
2026-05-05 22:43 42.37417 -71.01984 20 ft 12 kts 135°
2026-05-05 22:44 42.37362 -71.01911 20 ft 12 kts 136°
2026-05-05 22:44 42.37297 -71.01824 20 ft 15 kts 134°
2026-05-05 22:44 42.37228 -71.01729 20 ft 12 kts 138°
2026-05-05 22:44 42.37168 -71.01654 20 ft 12 kts 136°
2026-05-05 22:45 42.37102 -71.01565 20 ft 14 kts 135°
2026-05-05 22:45 42.37033 -71.01471 20 ft 14 kts 132°
2026-05-05 22:45 42.36972 -71.01388 20 ft 11 kts 137°
2026-05-05 22:45 42.36923 -71.01321 20 ft 11 kts 115°
2026-05-05 22:46 42.36934 -71.01210 20 ft 13 kts 71°
2026-05-05 22:46 42.36986 -71.01114 20 ft 14 kts 31°
2026-05-05 22:46 42.37078 -71.01054 20 ft 16 kts 27°
2026-05-05 22:46 42.37183 -71.00984 20 ft 18 kts 27°
2026-05-05 22:47 42.37278 -71.00920 20 ft 17 kts 23°
2026-05-05 22:47 42.37390 -71.00864 20 ft 16 kts 16°
2026-05-05 22:47 42.37411 -71.00855 20 ft 1 kts 16°
2026-05-05 22:47 42.37425 -71.00849 20 ft 4 kts 15°
2026-05-05 22:48 42.37473 -71.00837 20 ft 10 kts
2026-05-05 22:48 42.37557 -71.00804 20 ft 14 kts 20°
2026-05-05 22:48 42.37663 -71.00753 20 ft 18 kts 19°
2026-05-05 22:48 42.37786 -71.00695 20 ft 19 kts 23°
2026-05-05 22:49 42.37844 -71.00573 20 ft 5 kts 105°
2026-05-05 22:49 42.37839 -71.00555 20 ft 7 kts 108°
2026-05-05 22:49 42.37807 -71.00497 20 ft 8 kts 154°
2026-05-05 22:49 42.37728 -71.00509 20 ft 25 kts 197°
2026-05-05 22:50 42.37463 -71.00632 128 ft 46 kts 202°
2026-05-05 22:50 42.37126 -71.00850 296 ft 53 kts 216°
2026-05-05 22:50 42.36857 -71.01298 445 ft 66 kts 225°
2026-05-05 22:50 42.36577 -71.01814 616 ft 74 kts 230°
2026-05-05 22:51 42.36254 -71.02359 791 ft 76 kts 225°
2026-05-05 22:51 42.35861 -71.02902 924 ft 84 kts 223°
2026-05-05 22:51 42.35477 -71.03444 1160 ft 75 kts 221°
2026-05-05 22:51 42.35083 -71.03975 1283 ft 80 kts 225°
2026-05-05 22:52 42.34697 -71.04432 1526 ft 70 kts 220°
2026-05-05 22:52 42.34303 -71.04951 1570 ft 84 kts 226°
2026-05-05 22:52 42.33942 -71.05513 1847 ft 78 kts 226°
2026-05-05 22:52 42.33567 -71.06089 1977 ft 84 kts 228°
2026-05-05 22:53 42.33249 -71.06642 2259 ft 67 kts 236°
2026-05-05 22:53 42.32896 -71.07079 2429 ft 71 kts 211°
2026-05-05 22:53 42.32386 -71.07198 2554 ft 83 kts 195°
2026-05-05 22:53 42.31793 -71.07171 2731 ft 84 kts 189°
2026-05-05 22:54 42.31188 -71.07088 2899 ft 87 kts 188°
2026-05-05 22:54 42.30605 -71.07014 3049 ft 86 kts 190°
2026-05-05 22:54 42.29988 -71.06966 3083 ft 90 kts 190°
2026-05-05 22:54 42.29345 -71.06923 3068 ft 93 kts 192°
2026-05-05 22:55 42.28708 -71.06928 3124 ft 91 kts 193°
2026-05-05 22:55 42.28065 -71.06966 3139 ft 93 kts 194°
2026-05-05 22:55 42.27429 -71.07023 3205 ft 92 kts 197°
2026-05-05 22:55 42.26800 -71.07125 3300 ft 90 kts 199°
2026-05-05 22:56 42.26184 -71.07297 3353 ft 90 kts 206°
2026-05-05 22:56 42.25612 -71.07582 3433 ft 85 kts 212°
2026-05-05 22:56 42.25100 -71.07954 3484 ft 86 kts 217°
2026-05-05 22:56 42.24563 -71.08346 3546 ft 89 kts 214°
2026-05-05 22:57 42.24004 -71.08717 3613 ft 90 kts 213°
2026-05-05 22:57 42.23424 -71.09061 3645 ft 93 kts 210°
2026-05-05 22:57 42.22842 -71.09368 3741 ft 90 kts 202°
2026-05-05 22:57 42.22179 -71.09391 3775 ft 98 kts 188°
2026-05-05 22:58 42.21501 -71.09207 3851 ft 101 kts 176°
2026-05-05 22:58 42.20795 -71.08879 3814 ft 111 kts 174°
2026-05-05 22:58 42.20085 -71.08584 3858 ft 105 kts 178°
2026-05-05 22:58 42.19361 -71.08412 3823 ft 104 kts 185°
2026-05-05 22:59 42.18652 -71.08345 3851 ft 101 kts 189°
2026-05-05 22:59 42.17968 -71.08319 3880 ft 98 kts 192°
2026-05-05 22:59 42.17281 -71.08346 3752 ft 101 kts 194°
2026-05-05 22:59 42.16578 -71.08388 3660 ft 98 kts 195°
2026-05-05 23:00 42.15327 -71.08450 3649 ft 87 kts 192°
2026-05-05 23:00 42.14729 -71.08432 3645 ft 87 kts 192°
2026-05-05 23:00 42.14130 -71.08416 3675 ft 83 kts 192°
2026-05-05 23:01 42.13546 -71.08382 3635 ft 87 kts 192°
2026-05-05 23:01 42.12946 -71.08354 3632 ft 87 kts 191°
2026-05-05 23:01 42.12331 -71.08340 3597 ft 86 kts 193°
2026-05-05 23:01 42.11767 -71.08336 3606 ft 83 kts 194°
2026-05-05 23:02 42.11186 -71.08376 3571 ft 82 kts 198°
2026-05-05 23:02 42.10631 -71.08473 3569 ft 81 kts 199°
2026-05-05 23:02 42.10084 -71.08548 3604 ft 79 kts 198°
2026-05-05 23:02 42.09518 -71.08584 3595 ft 82 kts 193°
2026-05-05 23:03 42.09132 -71.08581 3572 ft 84 kts 193°
2026-05-05 23:03 42.08548 -71.08588 3586 ft 82 kts 195°
2026-05-05 23:03 42.07985 -71.08601 3567 ft 84 kts 195°
2026-05-05 23:03 42.07397 -71.08612 3530 ft 83 kts 194°
2026-05-05 23:04 42.06815 -71.08571 3521 ft 84 kts 189°
2026-05-05 23:04 42.06243 -71.08451 3511 ft 84 kts 188°
2026-05-05 23:04 42.05670 -71.08350 3512 ft 82 kts 189°
2026-05-05 23:04 42.05103 -71.08275 3494 ft 81 kts 191°
2026-05-05 23:05 42.04540 -71.08192 3466 ft 84 kts 189°
2026-05-05 23:05 42.03964 -71.08088 3462 ft 82 kts 188°
2026-05-05 23:05 42.03389 -71.07957 3413 ft 86 kts 185°
2026-05-05 23:05 42.02807 -71.07788 3386 ft 83 kts 185°
2026-05-05 23:06 42.02244 -71.07686 3316 ft 82 kts 191°
2026-05-05 23:06 42.01684 -71.07631 3296 ft 80 kts 190°
2026-05-05 23:06 42.01115 -71.07547 3293 ft 81 kts 189°
2026-05-05 23:06 42.00559 -71.07442 3345 ft 82 kts 188°
2026-05-05 23:07 42.00000 -71.07358 3402 ft 81 kts 190°
2026-05-05 23:07 41.99447 -71.07306 3464 ft 80 kts 193°
2026-05-05 23:07 41.98892 -71.07281 3506 ft 79 kts 194°
2026-05-05 23:07 41.98345 -71.07290 3547 ft 79 kts 197°
2026-05-05 23:08 41.97807 -71.07377 3638 ft 76 kts 205°
2026-05-05 23:08 41.97317 -71.07569 3689 ft 72 kts 211°
2026-05-05 23:08 41.96811 -71.07762 3576 ft 78 kts 206°
2026-05-05 23:08 41.96275 -71.07922 3513 ft 79 kts 204°
2026-05-05 23:09 41.95747 -71.08051 3484 ft 76 kts 203°
2026-05-05 23:09 41.95210 -71.08129 3414 ft 78 kts 197°
2026-05-05 23:09 41.94674 -71.08170 3351 ft 77 kts 197°
2026-05-05 23:09 41.94161 -71.08218 3385 ft 75 kts 200°
2026-05-05 23:10 41.93651 -71.08283 3495 ft 73 kts 199°
2026-05-05 23:10 41.93136 -71.08324 3551 ft 74 kts 200°
2026-05-05 23:10 41.92623 -71.08365 3605 ft 76 kts 198°
2026-05-05 23:10 41.92099 -71.08384 3706 ft 74 kts 197°
2026-05-05 23:11 41.91577 -71.08405 3683 ft 76 kts 199°
2026-05-05 23:11 41.91049 -71.08444 3668 ft 77 kts 198°
2026-05-05 23:11 41.90516 -71.08460 3663 ft 76 kts 195°
2026-05-05 23:11 41.89974 -71.08450 3624 ft 81 kts 192°
2026-05-05 23:12 41.89417 -71.08352 3621 ft 82 kts 186°
2026-05-05 23:12 41.88850 -71.08186 3579 ft 83 kts 187°
2026-05-05 23:12 41.88292 -71.08147 3540 ft 76 kts 200°
2026-05-05 23:12 41.87817 -71.08338 3511 ft 69 kts 223°
2026-05-05 23:13 41.87361 -71.08589 3490 ft 77 kts 199°
2026-05-05 23:13 41.86795 -71.08353 3460 ft 97 kts 164°
2026-05-05 23:13 41.86338 -71.07604 3459 ft 112 kts 131°
2026-05-05 23:13 41.86141 -71.06543 3434 ft 123 kts 101°
2026-05-05 23:14 41.86167 -71.05410 3429 ft 121 kts 95°
2026-05-05 23:14 41.86136 -71.04304 3419 ft 117 kts 111°
2026-05-05 23:14 41.85918 -71.03271 3414 ft 113 kts 123°
2026-05-05 23:14 41.85656 -71.02278 3393 ft 113 kts 124°
2026-05-05 23:15 41.85313 -71.01368 3363 ft 105 kts 142°
2026-05-05 23:15 41.84871 -71.00621 3361 ft 101 kts 148°
2026-05-05 23:15 41.84414 -70.99901 3350 ft 101 kts 149°
2026-05-05 23:15 41.83962 -70.99197 3365 ft 101 kts 149°
2026-05-05 23:16 41.83513 -70.98496 3394 ft 98 kts 148°
2026-05-05 23:16 41.83069 -70.97786 3398 ft 99 kts 149°
2026-05-05 23:16 41.82638 -70.97075 3407 ft 101 kts 148°
2026-05-05 23:16 41.82202 -70.96331 3432 ft 100 kts 147°
2026-05-05 23:17 41.81767 -70.95587 3438 ft 101 kts 148°
2026-05-05 23:17 41.81361 -70.94816 3446 ft 105 kts 141°
2026-05-05 23:17 41.80999 -70.93950 3467 ft 107 kts 135°
2026-05-05 23:17 41.80657 -70.93051 3474 ft 107 kts 137°
2026-05-05 23:18 41.80275 -70.92219 3474 ft 103 kts 145°
2026-05-05 23:18 41.79836 -70.91508 3492 ft 98 kts 154°
2026-05-05 23:18 41.79370 -70.90853 3522 ft 96 kts 155°
2026-05-05 23:18 41.78896 -70.90238 3526 ft 94 kts 160°
2026-05-05 23:19 41.78395 -70.89693 3564 ft 90 kts 166°
2026-05-05 23:19 41.77877 -70.89239 3594 ft 88 kts 170°
2026-05-05 23:19 41.77373 -70.88748 3613 ft 92 kts 164°
2026-05-05 23:19 41.76871 -70.88228 3624 ft 91 kts 166°
2026-05-05 23:20 41.76367 -70.87751 3637 ft 89 kts 168°
2026-05-05 23:20 41.75857 -70.87251 3657 ft 93 kts 162°
2026-05-05 23:20 41.75385 -70.86611 3657 ft 99 kts 153°
2026-05-05 23:20 41.74929 -70.85924 3686 ft 98 kts 153°
2026-05-05 23:21 41.74460 -70.85251 3687 ft 100 kts 156°
2026-05-05 23:21 41.73986 -70.84593 3745 ft 98 kts 154°
2026-05-05 23:21 41.73517 -70.83906 3727 ft 102 kts 153°
2026-05-05 23:21 41.73039 -70.83233 3755 ft 99 kts 156°
2026-05-05 23:22 41.72547 -70.82594 3782 ft 97 kts 155°
2026-05-05 23:22 41.72070 -70.81941 3775 ft 100 kts 154°
2026-05-05 23:22 41.71595 -70.81296 3814 ft 97 kts 155°
2026-05-05 23:22 41.71115 -70.80657 3796 ft 97 kts 155°
2026-05-05 23:23 41.70631 -70.80023 3775 ft 97 kts 156°
2026-05-05 23:23 41.70142 -70.79406 3760 ft 96 kts 158°
2026-05-05 23:23 41.69646 -70.78809 3753 ft 94 kts 160°
2026-05-05 23:23 41.69152 -70.78246 3739 ft 95 kts 160°
2026-05-05 23:24 41.68664 -70.77634 3733 ft 96 kts 157°
2026-05-05 23:24 41.68175 -70.77026 3727 ft 95 kts 160°
2026-05-05 23:24 41.67688 -70.76448 3722 ft 93 kts 161°
2026-05-05 23:24 41.67200 -70.75890 3711 ft 93 kts 160°
2026-05-05 23:25 41.66732 -70.75237 3689 ft 100 kts 152°
2026-05-05 23:25 41.66302 -70.74500 3700 ft 102 kts 144°
2026-05-05 23:25 41.65942 -70.73636 3682 ft 110 kts 135°
2026-05-05 23:25 41.65620 -70.72710 3699 ft 111 kts 132°
2026-05-05 23:26 41.65285 -70.71758 3693 ft 116 kts 131°
2026-05-05 23:26 41.64947 -70.70785 3757 ft 112 kts 135°
2026-05-05 23:26 41.64575 -70.69866 3776 ft 112 kts 138°
2026-05-05 23:26 41.64201 -70.68946 3786 ft 116 kts 137°
2026-05-05 23:27 41.63805 -70.67983 3765 ft 121 kts 134°
2026-05-05 23:27 41.63419 -70.66964 3730 ft 124 kts 134°
2026-05-05 23:27 41.63015 -70.65933 3676 ft 128 kts 134°
2026-05-05 23:27 41.62610 -70.64894 3667 ft 126 kts 134°
2026-05-05 23:28 41.62204 -70.63866 3693 ft 122 kts 135°
2026-05-05 23:28 41.61803 -70.62886 3695 ft 121 kts 137°
2026-05-05 23:28 41.61382 -70.61912 3715 ft 120 kts 139°
2026-05-05 23:28 41.60929 -70.60986 3709 ft 118 kts 144°
2026-05-05 23:29 41.60458 -70.60087 3720 ft 118 kts 142°
2026-05-05 23:29 41.60020 -70.59152 3720 ft 121 kts 138°
2026-05-05 23:29 41.59599 -70.58183 3714 ft 120 kts 140°
2026-05-05 23:29 41.59154 -70.57256 3735 ft 117 kts 143°
2026-05-05 23:30 41.58676 -70.56377 3734 ft 117 kts 147°
2026-05-05 23:30 41.58187 -70.55544 3752 ft 114 kts 149°
2026-05-05 23:30 41.57688 -70.54721 3750 ft 114 kts 150°
2026-05-05 23:30 41.57178 -70.53921 3751 ft 112 kts 151°
2026-05-05 23:31 41.56673 -70.53111 3710 ft 114 kts 150°
2026-05-05 23:31 41.56159 -70.52327 3691 ft 110 kts 154°
2026-05-05 23:31 41.55640 -70.51573 3650 ft 112 kts 152°
2026-05-05 23:31 41.55125 -70.50802 3624 ft 110 kts 153°
2026-05-05 23:32 41.54642 -70.49979 3588 ft 117 kts 144°
2026-05-05 23:32 41.54223 -70.49008 3558 ft 121 kts 136°
2026-05-05 23:32 41.53882 -70.47950 3527 ft 126 kts 129°
2026-05-05 23:32 41.53583 -70.46851 3479 ft 129 kts 127°
2026-05-05 23:33 41.53307 -70.45705 3460 ft 129 kts 125°
2026-05-05 23:33 41.53016 -70.44575 3433 ft 127 kts 129°
2026-05-05 23:33 41.52686 -70.43507 3406 ft 124 kts 134°
2026-05-05 23:33 41.52315 -70.42486 3385 ft 122 kts 136°
2026-05-05 23:34 41.51982 -70.41401 3351 ft 128 kts 127°
2026-05-05 23:34 41.51712 -70.40274 3326 ft 129 kts 126°
2026-05-05 23:34 41.51448 -70.39119 3307 ft 129 kts 125°
2026-05-05 23:34 41.51184 -70.37969 3274 ft 129 kts 127°
2026-05-05 23:35 41.50900 -70.36860 3261 ft 126 kts 130°
2026-05-05 23:35 41.50573 -70.35782 3247 ft 124 kts 134°
2026-05-05 23:35 41.50231 -70.34752 3237 ft 121 kts 137°
2026-05-05 23:35 41.49874 -70.33721 3231 ft 124 kts 134°
2026-05-05 23:36 41.49579 -70.32614 3224 ft 129 kts 125°
2026-05-05 23:36 41.49359 -70.31430 3220 ft 132 kts 120°
2026-05-05 23:36 41.49166 -70.30237 3186 ft 135 kts 119°
2026-05-05 23:36 41.48965 -70.28999 3138 ft 135 kts 119°
2026-05-05 23:37 41.48756 -70.27802 3115 ft 132 kts 122°
2026-05-05 23:37 41.48539 -70.26610 3053 ft 133 kts 122°
2026-05-05 23:37 41.48315 -70.25416 3038 ft 131 kts 123°
2026-05-05 23:37 41.48072 -70.24254 2997 ft 129 kts 127°
2026-05-05 23:38 41.47711 -70.23229 2942 ft 115 kts 148°
2026-05-05 23:38 41.47192 -70.22555 2900 ft 95 kts 174°
2026-05-05 23:38 41.46632 -70.22198 2876 ft 89 kts 180°
2026-05-05 23:38 41.46092 -70.21664 2799 ft 108 kts 158°
2026-05-05 23:39 41.45700 -70.20756 2787 ft 115 kts 129°
2026-05-05 23:39 41.45547 -70.19721 2753 ft 108 kts 123°
2026-05-05 23:39 41.45443 -70.18787 2747 ft 99 kts 124°
2026-05-05 23:39 41.45386 -70.17866 2730 ft 101 kts 117°
2026-05-05 23:40 41.45384 -70.16910 2699 ft 106 kts 111°
2026-05-05 23:40 41.45330 -70.16010 2652 ft 96 kts 130°
2026-05-05 23:40 41.45246 -70.15119 2620 ft 99 kts 121°
2026-05-05 23:40 41.45215 -70.14181 2569 ft 100 kts 116°
2026-05-05 23:41 41.45185 -70.13255 2477 ft 96 kts 126°
2026-05-05 23:41 41.45034 -70.12467 2394 ft 80 kts 151°
2026-05-05 23:41 41.44781 -70.11936 2318 ft 57 kts 178°
2026-05-05 23:41 41.44514 -70.11601 2248 ft 60 kts 173°
2026-05-05 23:42 41.44272 -70.11028 2183 ft 78 kts 150°
2026-05-05 23:42 41.44108 -70.10285 2117 ft 86 kts 140°
2026-05-05 23:42 41.43989 -70.09471 2050 ft 95 kts 130°
2026-05-05 23:42 41.43941 -70.08579 1979 ft 99 kts 123°
2026-05-05 23:43 41.43932 -70.07641 1907 ft 101 kts 117°
2026-05-05 23:43 41.43961 -70.06694 1825 ft 105 kts 111°
2026-05-05 23:43 41.44034 -70.05708 1784 ft 106 kts 107°
2026-05-05 23:43 41.44037 -70.04784 1769 ft 90 kts 131°
2026-05-05 23:44 41.43908 -70.03963 1685 ft 88 kts 136°
2026-05-05 23:44 41.43768 -70.03192 1603 ft 84 kts 144°
2026-05-05 23:44 41.43546 -70.02607 1574 ft 56 kts 173°
2026-05-05 23:44 41.43320 -70.02373 1528 ft 27 kts 204°
2026-05-05 23:45 41.43111 -70.02250 1420 ft 42 kts 186°
2026-05-05 23:45 41.42883 -70.01868 1332 ft 65 kts 162°
2026-05-05 23:45 41.42694 -70.01293 1308 ft 75 kts 143°
2026-05-05 23:45 41.42575 -70.00566 1281 ft 81 kts 131°
2026-05-05 23:46 41.42521 -69.99787 1243 ft 84 kts 126°
2026-05-05 23:46 41.42401 -69.99096 1227 ft 63 kts 157°
2026-05-05 23:46 41.42176 -69.98675 1207 ft 54 kts 168°
2026-05-05 23:46 41.41931 -69.98281 1138 ft 57 kts 169°
2026-05-05 23:47 41.41655 -69.97891 1135 ft 54 kts 171°
2026-05-05 23:47 41.41383 -69.97520 1088 ft 57 kts 171°
2026-05-05 23:47 41.41105 -69.97159 1110 ft 55 kts 172°
2026-05-05 23:47 41.40850 -69.96818 1163 ft 52 kts 173°
2026-05-05 23:48 41.40583 -69.96497 1183 ft 51 kts 177°
2026-05-05 23:48 41.40324 -69.96212 1217 ft 49 kts 178°
2026-05-05 23:48 41.40068 -69.95885 1241 ft 53 kts 173°
2026-05-05 23:48 41.39815 -69.95506 1247 ft 56 kts 169°
2026-05-05 23:49 41.39564 -69.95099 1258 ft 57 kts 169°
2026-05-05 23:49 41.39319 -69.94688 1266 ft 58 kts 168°
2026-05-05 23:49 41.39074 -69.94255 1282 ft 59 kts 166°
2026-05-05 23:49 41.38832 -69.93806 1292 ft 60 kts 165°
2026-05-05 23:50 41.38675 -69.93494 1296 ft 62 kts 163°
2026-05-05 23:50 41.38373 -69.92809 1309 ft 67 kts 156°
2026-05-05 23:50 41.38229 -69.92439 1318 ft 65 kts 159°
2026-05-05 23:50 41.37900 -69.91922 1318 ft 49 kts 179°
2026-05-05 23:51 41.37639 -69.91638 1317 ft 46 kts 183°
2026-05-05 23:51 41.37478 -69.91485 1341 ft 39 kts 189°
2026-05-05 23:51 41.37237 -69.91315 1316 ft 40 kts 192°
2026-05-05 23:51 41.37013 -69.91175 1336 ft 33 kts 196°
2026-05-05 23:52 41.36790 -69.91083 1311 ft 32 kts 199°
2026-05-05 23:52 41.36585 -69.91002 1292 ft 34 kts 198°
2026-05-05 23:52 41.36386 -69.91033 1293 ft 24 kts 224°
2026-05-05 23:52 41.36320 -69.91258 1269 ft 29 kts 234°
2026-05-05 23:53 41.36288 -69.91513 1269 ft 28 kts 235°
2026-05-05 23:53 41.36246 -69.91769 1269 ft 27 kts 234°
2026-05-05 23:53 41.36202 -69.92022 1256 ft 28 kts 234°
2026-05-05 23:53 41.36161 -69.92267 1232 ft 28 kts 234°
2026-05-05 23:54 41.36109 -69.92512 1206 ft 27 kts 231°
2026-05-05 23:54 41.36017 -69.92722 1171 ft 25 kts 224°
2026-05-05 23:54 41.35887 -69.92883 1111 ft 26 kts 218°
2026-05-05 23:54 41.35722 -69.92991 1061 ft 29 kts 210°
2026-05-05 23:55 41.35531 -69.93053 1049 ft 29 kts 205°
2026-05-05 23:55 41.35335 -69.93101 1044 ft 27 kts 204°
2026-05-05 23:55 41.35136 -69.93163 1006 ft 29 kts 207°
2026-05-05 23:55 41.34954 -69.93253 998 ft 29 kts 209°
2026-05-05 23:56 41.34783 -69.93383 1034 ft 26 kts 214°
2026-05-05 23:56 41.34638 -69.93557 1064 ft 27 kts 219°
2026-05-05 23:56 41.34516 -69.93771 1079 ft 29 kts 227°
2026-05-05 23:56 41.34422 -69.94027 1093 ft 31 kts 234°
2026-05-05 23:57 41.34358 -69.94285 1081 ft 29 kts 228°
2026-05-05 23:57 41.34290 -69.94535 1095 ft 25 kts 233°
2026-05-05 23:57 41.34233 -69.94791 1112 ft 26 kts 235°
2026-05-05 23:57 41.34139 -69.94978 1090 ft 29 kts 219°
2026-05-05 23:58 41.33992 -69.95123 1107 ft 26 kts 220°
2026-05-05 23:58 41.33828 -69.95288 1096 ft 29 kts 220°
2026-05-05 23:58 41.33659 -69.95425 1079 ft 29 kts 217°
2026-05-05 23:58 41.33518 -69.95591 1061 ft 30 kts 221°
2026-05-05 23:59 41.33424 -69.95843 1090 ft 30 kts 230°
2026-05-05 23:59 41.33309 -69.96075 1099 ft 26 kts 218°
2026-05-05 23:59 41.33106 -69.96154 1042 ft 34 kts 216°
2026-05-05 23:59 41.32959 -69.96294 1083 ft 24 kts 219°
2026-05-06 00:00 41.32852 -69.96480 1078 ft 26 kts 230°
2026-05-06 00:00 41.32747 -69.96646 1043 ft 27 kts 224°
2026-05-06 00:00 41.32662 -69.96834 1057 ft 19 kts 225°
2026-05-06 00:00 41.32563 -69.96948 1010 ft 24 kts 221°
2026-05-06 00:01 41.32428 -69.97103 1049 ft 27 kts 222°
2026-05-06 00:01 41.32314 -69.97267 1125 ft 24 kts 225°
2026-05-06 00:01 41.32191 -69.97418 1180 ft 23 kts 222°
2026-05-06 00:01 41.32058 -69.97577 1215 ft 27 kts 223°
2026-05-06 00:02 41.31945 -69.97738 1258 ft 22 kts 223°
2026-05-06 00:02 41.31846 -69.97889 1241 ft 23 kts 225°
2026-05-06 00:02 41.31726 -69.98043 1191 ft 23 kts 220°
2026-05-06 00:02 41.31596 -69.98182 1143 ft 25 kts 223°
2026-05-06 00:03 41.31484 -69.98345 1099 ft 24 kts 223°
2026-05-06 00:03 41.31365 -69.98532 1032 ft 27 kts 225°
2026-05-06 00:03 41.31257 -69.98741 986 ft 29 kts 222°
2026-05-06 00:03 41.31098 -69.98887 949 ft 30 kts 209°
2026-05-06 00:04 41.30925 -69.99133 859 ft 40 kts 221°
2026-05-06 00:04 41.30808 -69.99482 794 ft 44 kts 228°
2026-05-06 00:04 41.30586 -69.99776 771 ft 39 kts 208°
2026-05-06 00:04 41.30348 -70.00025 723 ft 45 kts 220°
2026-05-06 00:05 41.29947 -70.00532 847 ft 31 kts 216°
2026-05-06 00:05 41.29735 -70.00726 801 ft 45 kts 223°
2026-05-06 00:05 41.29612 -70.01023 806 ft 42 kts 218°
2026-05-06 00:06 41.29377 -70.01286 800 ft 45 kts 209°
2026-05-06 00:06 41.29148 -70.01606 807 ft 46 kts 222°
2026-05-06 00:06 41.28939 -70.01873 782 ft 41 kts 210°
2026-05-06 00:06 41.28719 -70.02098 728 ft 45 kts 225°
2026-05-06 00:07 41.28485 -70.02444 588 ft 54 kts 217°
2026-05-06 00:07 41.28238 -70.02802 567 ft 48 kts 214°
2026-05-06 00:07 41.27960 -70.03039 541 ft 50 kts 206°
2026-05-06 00:07 41.27722 -70.03307 481 ft 53 kts 223°
2026-05-06 00:08 41.27530 -70.03675 465 ft 48 kts 223°
2026-05-06 00:08 41.27290 -70.03973 401 ft 45 kts 208°
2026-05-06 00:08 41.27032 -70.04213 295 ft 48 kts 215°
2026-05-06 00:08 41.26893 -70.04568 212 ft 37 kts 238°